Weather History for KNBT - October, 2013

Change the Weather History Date:

Thursday, October 3, 2013

  Actual Average (KMRH) Record (KMRH)
Temperature  
Mean Temperature 74 °F -  
Max Temperature 84 °F 79 °F 89 °F (1986)
Min Temperature 66 °F 58 °F 40 °F (1974)
Cooling Degree Days 9    
Growing Degree Days 24 (Base 50)    
Moisture  
Dew Point 66 °F    
Average Humidity 79    
Maximum Humidity 100    
Minimum Humidity 49    
Precipitation  
Precipitation 0.00 in - - ()
Sea Level Pressure  
Sea Level Pressure 30.14 in    
Wind  
Wind Speed 5 mph (WSW)    
Max Wind Speed 10 mph    
Max Gust Speed -    
Visibility 8 miles    
Events Fog , Rain    
Averages and records for this station are not official NWS values.
T = Trace of Precipitation, MM = Missing Value Source: NWS Daily Summary

Daily Weather History Graph

Daily Weather History Graph

Search for Another Location

Airport or City:

Trip Planner

Search our weather history database for the weather conditions in past years. The results will help you decide how hot, cold, wet, or windy it might be!

Date:

Astronomy

Oct. 03, 2013 Rise Set
Actual Time 7:02 AM EDT 6:46 PM EDT
Civil Twilight 6:37 AM EDT 7:11 PM EDT
Nautical Twilight 6:07 AM EDT 7:41 PM EDT
Astronomical Twilight 5:38 AM EDT 8:10 PM EDT
Moon 5:35 AM EDT (10/3) 5:53 PM EDT (10/3)
Length of Visible Light 12h 34m
Length of Day
11h 44m
Waning Crescent, 2% of the Moon is Illuminated
Oct 3
Waning Crescent
Oct 4
New
Oct 11
First Quarter
Oct 18
Full
Oct 26
Last Quarter

Hourly Weather History & Observations

Time (EDT) Temp. Heat Index Dew Point Humidity Pressure Visibility Wind Dir Wind Speed Gust Speed Precip Events Conditions
12:56 AM 69.1 °F - 66.9 °F 93% 30.13 in 8.0 mi SW 5.8 mph - N/A   Clear
1:56 AM 68.0 °F - 66.0 °F 93% 30.13 in 6.0 mi SW 4.6 mph - N/A   Clear
2:56 AM 68.0 °F - 66.0 °F 93% 30.12 in 6.0 mi WSW 4.6 mph - N/A   Clear
3:56 AM 69.1 °F - 66.9 °F 93% 30.12 in 7.0 mi WSW 4.6 mph - N/A   Clear
4:56 AM 69.1 °F - 66.9 °F 93% 30.12 in 5.0 mi WSW 3.5 mph - N/A   Clear
5:56 AM 66.9 °F - 66.0 °F 97% 30.13 in 1.8 mi Calm Calm - N/A   Clear
6:06 AM 66.0 °F - 64.9 °F 96% 30.12 in 0.5 mi Calm Calm - 0.00 in Fog , Rain Light Rain
6:56 AM 66.9 °F - 66.9 °F 100% 30.14 in 0.5 mi Calm Calm - 0.00 in Fog Fog
7:17 AM 68.0 °F - 68.0 °F 100% 30.13 in 1.8 mi Calm Calm - N/A   Partly Cloudy
7:19 AM 68.0 °F - 68.0 °F 100% 30.13 in 3.0 mi Calm Calm - N/A   Partly Cloudy
7:56 AM 68.0 °F - 66.0 °F 93% 30.15 in 7.0 mi NNW 3.5 mph - N/A   Clear
8:56 AM 73.0 °F - 66.9 °F 81% 30.16 in 9.0 mi NW 4.6 mph - N/A   Clear
9:56 AM 75.0 °F - 66.0 °F 73% 30.17 in 10.0 mi WNW 8.1 mph - N/A   Clear
10:56 AM 78.1 °F - 66.9 °F 68% 30.17 in 10.0 mi NW 6.9 mph - N/A   Clear
11:56 AM 81.0 °F 81.7 °F 61.0 °F 50% 30.16 in 10.0 mi West 5.8 mph - N/A   Clear
12:56 PM 82.0 °F 82.7 °F 61.0 °F 49% 30.14 in 10.0 mi WNW 8.1 mph - N/A   Clear
1:56 PM 82.9 °F 83.7 °F 62.1 °F 49% 30.13 in 10.0 mi WNW 8.1 mph - N/A   Partly Cloudy
2:56 PM 80.1 °F 82.3 °F 66.9 °F 64% 30.12 in 10.0 mi ESE 9.2 mph - N/A   Scattered Clouds
3:56 PM 81.0 °F 83.3 °F 66.9 °F 62% 30.12 in 10.0 mi East 6.9 mph - N/A   Partly Cloudy
4:56 PM 82.0 °F 82.7 °F 61.0 °F 49% 30.12 in 10.0 mi SSW 10.4 mph - N/A   Clear
5:56 PM 80.1 °F 81.5 °F 63.0 °F 56% 30.12 in 10.0 mi SSW 9.2 mph - N/A   Clear
6:56 PM 75.0 °F - 64.9 °F 71% 30.13 in 10.0 mi SSW 6.9 mph - N/A   Clear
7:56 PM 72.0 °F - 64.9 °F 78% 30.13 in 10.0 mi South 5.8 mph - N/A   Clear
8:56 PM 71.1 °F - 66.0 °F 84% 30.14 in 10.0 mi South 3.5 mph - N/A   Clear
9:56 PM 71.1 °F - 66.9 °F 87% 30.14 in 10.0 mi SSW 4.6 mph - N/A   Clear
10:56 PM 70.0 °F - 66.9 °F 90% 30.15 in 9.0 mi SSW 4.6 mph - N/A   Clear